This is the latest recevied weather packets stored in our database for station/object WE1C. If no packets are shown the sender has not sent any weather packets the latest 1 day(s).
| Time | Temp. | Humidity | Pressure | Rain* | Wind** | Luminosity | Snow |
|---|---|---|---|---|---|---|---|
| 1778036672 | 16.67° C | 66% | 1038.9 hPa | 0 mm | 0.45 m/s, 177° | 0 W/m² | - |
| 1778036369 | 16.67° C | 65% | 1039.1 hPa | 0 mm | 1.34 m/s, 213° | 0 W/m² | - |
| 1778036066 | 16.67° C | 66% | 1038.9 hPa | 0 mm | 1.34 m/s, 220° | 0 W/m² | - |
| 1778035763 | 16.67° C | 66% | 1038.9 hPa | 0 mm | 0.89 m/s, 251° | 0 W/m² | - |
| 1778035460 | 16.67° C | 65% | 1039 hPa | 0 mm | 0 m/s | 0 W/m² | - |
| 1778035155 | 16.67° C | 65% | 1039.1 hPa | 0 mm | 0.45 m/s, 147° | 0 W/m² | - |
| 1778034852 | 16.67° C | 65% | 1038.9 hPa | 0 mm | 0.45 m/s, 40° | 0 W/m² | - |
| 1778034549 | 16.67° C | 65% | 1038.9 hPa | 0 mm | 0.89 m/s, 187° | 0 W/m² | - |
| 1778034247 | 16.67° C | 64% | 1038.7 hPa | 0 mm | 0.45 m/s, 99° | 0 W/m² | - |
| 1778033945 | 16.67° C | 64% | 1038.9 hPa | 0 mm | 0.89 m/s, 206° | 0 W/m² | - |
| 1778033642 | 17.22° C | 63% | 1038.9 hPa | 0 mm | 0.89 m/s, 200° | 0 W/m² | - |
| 1778033338 | 17.22° C | 63% | 1039.1 hPa | 0 mm | 1.34 m/s, 143° | 0 W/m² | - |
| 1778033036 | 17.22° C | 63% | 1038.8 hPa | 0 mm | 0.89 m/s, 231° | 0 W/m² | - |
| 1778032733 | 17.22° C | 62% | 1038.9 hPa | 0 mm | 1.79 m/s, 287° | 0 W/m² | - |
| 1778032431 | 17.22° C | 62% | 1038.9 hPa | 0 mm | 0.89 m/s, 238° | 0 W/m² | - |
| 1778032128 | 17.22° C | 62% | 1039 hPa | 0 mm | 0.45 m/s, 69° | 0 W/m² | - |
| 1778031824 | 17.22° C | 62% | 1038.9 hPa | 0 mm | 0.89 m/s, 185° | 0 W/m² | - |
| 1778031521 | 17.78° C | 62% | 1038.4 hPa | 0 mm | 1.34 m/s, 179° | 0 W/m² | - |
| 1778031219 | 17.78° C | 62% | 1038.4 hPa | 0 mm | 0.89 m/s, 193° | 0 W/m² | - |
| 1778030915 | 17.78° C | 62% | 1038.4 hPa | 0 mm | 0.45 m/s, 181° | 0 W/m² | - |
| 1778030612 | 17.78° C | 62% | 1038.4 hPa | 0 mm | 0 m/s | 0 W/m² | - |
| 1778030309 | 17.78° C | 61% | 1038.1 hPa | 0 mm | 0.89 m/s, 122° | 0 W/m² | - |
| 1778030005 | 17.78° C | 61% | 1038.2 hPa | 0 mm | 0.89 m/s, 110° | 0 W/m² | - |
| 1778029703 | 18.33° C | 61% | 1038.2 hPa | 0 mm | 0 m/s | 0 W/m² | - |
| 1778029401 | 18.33° C | 60% | 1038.1 hPa | 0 mm | 1.34 m/s, 203° | 0 W/m² | - |
* Rain latest hour (hover to see other rain measurements)
** Current wind speed in m/s (hover to see current wind gust speed)